COSMOS 1275 DEB, 13489

Orbit data source: Space-Track

COSMOS 1275 DEB, 13489 is space debris in LEO originally from a launch on Thu, 04 Jun 1981 UTC launched from the Plesetsk Missile And Space Complex (PKMTR). Debris objects in space refer to the collection of defunct objects orbiting the Earth. Examples of debris include non-operational satellites, rocket bodies, and fragments generated from explosions, collisions, or faulty payload assembly.

Loading next visibility...
Identifier
13489, 1981-053GK
Orbit
LEO
Country
Flag of CISCIS
Related business
Manufacturer
Unknown
Mission
Spacecraft
Bus & Motor
Unknown
Mass
Unknown
Launch date (UTC)
1981-06-04 (44 years ago)
Launch vehicle
Unknown
Launch site
Plesetsk Missile And Space Complex (PKMTR)
Object type
Payload
Rocket body
Debris
Shape & HBR
Unknown shape, 0.1 m
Radar Cross Section
Small (<0.1 m²)

Expand to show TLE details & history
Last TLE update: 22 hours ago

TLE from 22 hours ago
0 COSMOS 1275 DEB
1 13489U 81053GK  25296.48656972  .00000979  00000-0  14619-2 0  9991
2 13489  83.1349 100.0422 0236901  78.3879 338.6138 13.41661055110272
Epoch: 2025-10-23T11:40Z
TLE epoch observation values (Epoch: 2025-10-23T11:40:39.623Z)
Latitude
55.47775°
Longitude
-97.24098°
Altitude
947.813 km
Speed
7.464 km/s
True Right ascension
07h 20m 16s
True Declination
55° 19' 16"
Sunlit
Object was in daylight at epoch
Visualization orbit readout
Latitude
Unknown
Longitude
Unknown
Altitude
Unknown
Speed
Unknown
Apparent Right ascension
Unknown
Apparent Declination
Unknown
Sunlit
N/A
Visualization observer readout
Local Sidereal Time
04:44:07
Azimuth
Unknown
Elevation
Unknown
Doppler factor
Unknown
Orbital elements
Apogee altitude
1,277.448 km
Perigee altitude
923.119 km
Semi-major axis
7,478.421 km
Eccentricity
0.02369
Inclination
83.1349°
RAAN
100.0422°
Arg. of periapsis
78.3879°
True anomaly
337.5959°
Mean anomaly
338.6138°
Eccentric anomaly
338.1077°
Mean motion
3.35605 °/min
Orbital period
107.27 mins
BSTAR
0.0014619
Loading maneuver chart data...
Computing Atmospheric mass density...
Loading historical data...
Loading historical data...
Loading historical data...
Loading historical data...
Loading historical data...
Loading historical data...
Loading historical data...

Documentation

Showing up to 5 results
|